Location: Berg
(47.2344°N, 9.5296°E)
Time: 02:11:05
(UTC+00:00)

BEESAT 2 - Pass Details

Date: 06 December 2021
Orbit: 498 x 513 km, 64.9° (Epoch: 24 January)

Event Time Altitude Azimuth Distance (km) Brightness Sun altitude
Exits shadow 05:17:47 27° 315° (NW) 1,029 ? -15.5°
Maximum altitude 05:19:50 73° 235° (SW) 542 ? -15.2°
Drops below altitude 10° 05:23:42 10° 151° (SSE) 1,733 ? -14.6°
Sets 05:25:51 0° 149° (SSE) 2,612 ? -14.2°
